Find Kuiper-00218

NORAD ID: 67780 Int'l Des: 2026-030 Owner: KUIP Country: US Constellation: amazon-leo operational
LEOCIRCULAR

Current View

Loading 3D Globe...

About Kuiper-00218

Description loading...

Upcoming Passes

Passes for default location (London). Set your location on the main map for personalized predictions.

Altitude History

Loading altitude history...

Two-Line Element Set

1 67780U 26030S 26145.50046771 .00001547 00000-0 25071-3 0 9992
2 67780 51.8969 225.5202 0000876 92.2695 267.8366 14.76461724 16669
Epoch: May 25, 2026 • Age: 18 hours

Current Status

Altitude 655.0 km
Velocity 7.53 km/s
Sub-Earth Point -42.20°S, 150.79°W
Launch Date Feb 12, 2026
Age 0.2 years
Type internet

Technical Details

Classification Payload
Mass 490.00 kg
Dry Mass 490.00 kg
Total Mass 490.00 kg
Length 1.80 m
Diameter 0.70 m
Span 5.00 m
Shape Box + 2 pan
Manufacturer KUIP
Bus Type Kuiper
Phase Status In Orbit
Owner/State KUIP/US

Most Searched